Location: Leeds
(37.2390°N, 113.3580°W)
Time: 15:21:27
(UTC-06:00)

ISS - All Passes

Search period start: 05 May 2015 00:00
Search period end: 15 May 2015 00:00
Orbit: 394 x 401 km, 51.6° (Epoch: 05 May)

Date Brightness Start Highest point End Pass type
(mag) Time Alt. Az. Time Alt. Az. Time Alt. Az.
05 May - 08:41:16 10° SW 08:44:28 70° SE 08:47:43 10° NE daylight
05 May - 10:18:59 10° WNW 10:21:08 16° NNW 10:23:16 10° NNE daylight
05 May - 15:10:25 10° NW 15:13:27 34° NE 15:16:28 10° ESE daylight
05 May - 16:47:08 10° W 16:49:39 20° SW 16:52:07 10° S daylight
06 May - 07:47:23 10° SSW 07:50:14 30° SE 07:53:09 10° ENE daylight
06 May - 09:23:48 10° W 09:26:35 25° NNW 09:29:22 10° NNE daylight
06 May - 14:16:26 10° NNW 14:18:56 20° NNE 14:21:28 10° E daylight
06 May - 15:52:19 10° WNW 15:55:26 44° SW 15:58:32 10° SSE daylight
07 May - 06:54:17 10° SSE 06:56:03 14° SE 06:57:55 10° E daylight
07 May - 08:28:59 10° WSW 08:32:07 47° NW 08:35:17 10° NE daylight
07 May - 10:08:17 10° NNW 10:09:08 11° NNW 10:09:54 10° N daylight
07 May - 13:22:38 10° N 13:24:19 13° NNE 13:26:04 10° NE daylight
07 May - 14:57:53 10° NW 15:01:08 79° NE 15:04:23 10° SE daylight
08 May - 07:34:32 10° SW 07:37:44 78° SE 07:40:59 10° NE daylight
08 May - 09:12:24 10° WNW 09:14:26 15° NNW 09:16:27 10° NNE daylight
08 May - 14:03:39 10° NW 14:06:43 37° NE 14:09:47 10° ESE daylight
08 May - 15:40:30 10° W 15:42:53 19° SW 15:45:11 10° S daylight
09 May - 06:40:31 10° SSW 06:43:26 33° SE 06:46:24 10° ENE daylight
09 May - 08:17:06 10° W 08:19:49 24° NNW 08:22:31 10° NNE daylight
09 May - 13:09:34 10° NNW 13:12:09 21° NNE 13:14:46 10° E daylight
09 May - 14:45:32 10° WNW 14:48:37 40° SW 14:51:40 10° SSE daylight
10 May - 05:47:12 10° SSE 05:49:10 16° SE 05:51:14 10° E visible
10 May - 07:22:10 10° WSW 07:25:16 43° NW 07:28:23 10° NE daylight
10 May - 09:01:49 10° NNW 09:02:18 10° NNW 09:02:45 10° N daylight
10 May - 12:15:41 10° N 12:17:29 14° NNE 12:19:20 10° ENE daylight
10 May - 13:51:00 10° NW 13:54:15 87° NNE 13:57:30 10° SE daylight
11 May - 06:27:36 10° SW 06:30:49 86° SE 06:34:03 10° NE daylight
11 May - 08:05:37 10° WNW 08:07:32 15° NNW 08:09:26 10° NNE daylight
11 May - 12:56:41 10° NW 12:59:46 40° NE 13:02:52 10° ESE daylight
11 May - 14:33:41 10° W 14:35:54 17° SW 14:38:03 10° S daylight
12 May - 05:33:27 10° SSW 05:36:26 36° SE 05:39:27 10° ENE visible
12 May - 07:10:12 10° W 07:12:51 22° NNW 07:15:29 10° NNE daylight
12 May - 12:02:31 10° NNW 12:05:10 23° NNE 12:07:51 10° E daylight
12 May - 13:38:33 10° WNW 13:41:35 36° SW 13:44:35 10° SSE daylight
13 May - 04:39:58 10° S 04:42:06 17° SE 04:44:19 10° E visible
13 May - 06:15:10 10° WSW 06:18:13 40° NW 06:21:18 10° NE daylight
13 May - 11:08:32 10° NNW 11:10:26 15° NNE 11:12:25 10° ENE daylight
13 May - 12:43:55 10° NW 12:47:10 85° SW 12:50:25 10° SE daylight
14 May - 05:20:28 10° SW 05:23:41 86° NW 05:26:56 10° NE visible
14 May - 06:58:38 10° WNW 07:00:27 14° NNW 07:02:13 10° N daylight
14 May - 10:15:07 10° N 10:15:37 10° NNE 10:16:10 10° NNE daylight
14 May - 11:49:31 10° NW 11:52:38 44° NE 11:55:45 10° ESE daylight
14 May - 13:26:40 10° W 13:28:44 16° SW 13:30:42 10° SSW daylight
